Powrót do katalogu

CZ-2F DEB

AktywnyVLEO
NORAD 53364·DEBRIS·🇨🇳 China

Wystrzelony Aug 4, 2022 z Jiuquan Satellite Launch Center

Loading…

Następne Przeloty (najbliższe 24 godziny)

TLE

ŚwieżeSource: Space-Track

Epoka: Sep 14, 2026, 07:26 UTC

1 53364U 22093H   26257.30984992  .00006075  00000-0  24219-3 0  9992
2 53364  50.0463 107.8892 0070161  83.2124 277.6809 15.24320548227027

Śledź CZ-2F DEB w czasie rzeczywistym z AllMySat

Download on the App Store